Regional Weather Roundup
Issued by NWS

Home | Current Version | Previous Version | Graphics & Text | Print | Product List | Glossary On
Versions: 1 2 3 4 5 6 7 8 9 10 11 12 13 14 15 16 17 18 19 20 21 22 23 24 25 26 27 28 29 30 31 32 33 34 35 36 37 38 39 40 41 42 43 44 45 46 47 48 49 50
000
ASUS43 KFSD 010510
RWRSD

WEATHER ROUNDUP FOR SOUTH DAKOTA
NATIONAL WEATHER SERVICE SIOUX FALLS SD
1100 PM CST SAT JAN 31 2015

NOTE: "FAIR" INDICATES FEW OR NO CLOUDS BELOW 12,000 FEET WITH NO
SIGNIFICANT WEATHER AND/OR OBSTRUCTIONS TO VISIBILITY.


SDZ001>005-009-010-012>017-010600-
NORTHWEST AND NORTH CENTRAL SOUTH DAKOTA

CITY           SKY/WX    TMP DP  RH WIND       PRES   REMARKS
BUFFALO          N/A      5   1  83 NE16      30.15R WCI -14
FAITH            N/A      6   1  80 NE21      30.21R WCI -14
MOBRIDGE       CLOUDY     7  -2  66 N22       30.28R WCI -14
$$

SDZ012>016-024>037-041>051-057-063-072>074-010600-
SOUTHWEST AND SOUTH CENTRAL SOUTH DAKOTA

CITY           SKY/WX    TMP DP  RH WIND       PRES   REMARKS
RAPID CTY ARPT LGT SNOW  13  10  88 NE10      30.14R FOG     WCI   0
PIERRE         CLOUDY    11   1  64 N18       30.22R WCI  -7
CUSTER         CLOUDY    15  12  88 NE6       29.93R WCI   6
ELLSWORTH AFB  LGT SNOW  12  10  92 NE10      30.14  FOG     WCI  -1
PHILIP         CLOUDY    13   5  70 NE14      30.20R WCI  -2
PINE RIDGE     LGT SNOW  16  13  88 N8        30.08R FOG     WCI   5
WINNER         LGT SNOW  15  11  83 N21       30.12R VSB 3/4 WCI  -2
$$

SDZ004>011-016>023-039-040-010600-
NORTHEAST SOUTH DAKOTA

CITY           SKY/WX    TMP DP  RH WIND       PRES   REMARKS
ABERDEEN       MOCLDY     5  -5  63 N21G29    30.31R WCI -16
WATERTOWN      CLOUDY    10   2  69 NE17      30.16R WCI  -8
SISSETON         N/A      7  -2  66 N20G26    30.30R WCI -13
$$

SDZ017-020-022-023-036>040-048>070-010600-
SOUTHEAST SOUTH DAKOTA

CITY           SKY/WX    TMP DP  RH WIND       PRES   REMARKS
SIOUX FALLS    LGT SNOW  24  21  88 NE18      30.04R VSB 1   WCI  10
HURON          CLOUDY    14   4  64 N17       30.19R WCI  -3
CHAMBERLAIN    LGT SNOW  11   8  85 N17       30.15R WCI  -6
MITCHELL       LGT SNOW  18  15  88 N21G28    30.13R VSB 3/4 WCI   1
YANKTON        CLOUDY    25  23  93 NE17G24   30.02R WCI  11
$$

ABBREVIATIONS USED IN REMARKS
   TC - TEMPERATURE IN CELSIUS
  WCI - WIND CHILL INDEX
   HX - HEAT INDEX
  VSB - VISIBILITY




USA.gov is the U.S. government's official web portal to all federal, state and local government web resources and services.